Starlink 3357

operational
NORAD ID: 51150 Int'l Des: 2022-005 Owner: SPXS Country: US Constellation: starlink
LEOCIRCULAR

About Starlink 3357

Description loading...

Live Position

Loading 3D Globe...

Upcoming Passes

Altitude History

Altitude vs Time

uPlot chart will show altitude changes over time

Two-Line Element Set

1 51150U 22005AY 26061.04366997 .00001331 00000-0 10172-3 0 9992
2 51150 53.2192 333.0589 0001483 90.4285 269.6877 15.08837463227596
Epoch: Mar 2, 2026 • Age: 27 hours

Current Status

Altitude 539.5 km
Velocity 7.60 km/s
Sub-Earth Point 12.33°N, 70.26°W
Launch Date Jan 19, 2022
Age 4.1 years
Type internet

Technical Details

Classification Payload
Mass 297.00 kg
Dry Mass 275.00 kg
Total Mass 297.00 kg
Length 0.20 m
Diameter 2.80 m
Span 9.00 m
Shape Box + pan
Manufacturer SPXS
Bus Type Starlink
Phase Status In Orbit
Owner/State SPXS/US

Large Constellations

Loading constellations...